Reidsville, NC

8:23 AM EST on November 19, 2017 (GMT -0500)
Reidsville

Weather History for KSIF - January, 2013

Change the Weather History Date:

Saturday, January 19, 2013

  Actual Average (KGSO) Record (KGSO)
Temperature  
Mean Temperature 37 °F -  
Max Temperature 51 °F 44 °F 69 °F (1907)
Min Temperature 23 °F 27 °F -1 °F (1994)
Degree Days  
Heating Degree Days 28    
Moisture  
Dew Point 27 °F    
Average Humidity 74    
Maximum Humidity 97    
Minimum Humidity 39    
Precipitation  
Precipitation 0.00 in - - ()
Sea Level Pressure  
Sea Level Pressure 30.32 in    
Wind  
Wind Speed 2 mph (SW)    
Max Wind Speed 10 mph    
Max Gust Speed -    
Visibility 10 miles    
Events      
Averages and records for this station are not official NWS values.
T = Trace of Precipitation, MM = Missing Value Source: NWS Daily Summary

Daily Weather History Graph

Daily Weather History Graph

Search for Another Location

Airport or City:

Trip Planner

Search our weather history database for the weather conditions in past years. The results will help you decide how hot, cold, wet, or windy it might be!

Date:

Astronomy

Jan. 19, 2013 Rise Set
Actual Time 7:28 AM EST 5:32 PM EST
Civil Twilight 7:00 AM EST 5:59 PM EST
Nautical Twilight 6:29 AM EST 6:31 PM EST
Astronomical Twilight 5:58 AM EST 7:02 PM EST
Moon 11:55 AM EST 1:04 AM EST
Length of Visible Light 10h 58m
Length of Day
10h 03m
First Quarter, 57% of the Moon is Illuminated
Jan 19
First Quarter
Jan 26
Full
Feb 3
Last Quarter
Feb 10
New
Feb 17
First Quarter

Hourly Weather History & Observations

Time (EST) Temp. Windchill Dew Point Humidity Pressure Visibility Wind Dir Wind Speed Gust Speed Precip Events Conditions
12:15 AM 25.5 °F - 24.8 °F 97% 30.48 in 10.0 mi Calm Calm - N/A   Clear
12:35 AM 25.0 °F - 24.1 °F 96% 30.47 in 10.0 mi Calm Calm - N/A   Clear
12:55 AM 25.7 °F - 24.8 °F 96% 30.47 in 10.0 mi Calm Calm - N/A   Clear
1:15 AM 26.6 °F - 25.5 °F 96% 30.47 in 10.0 mi Calm Calm - N/A   Clear
1:35 AM 26.4 °F - 25.3 °F 96% 30.46 in 10.0 mi Calm Calm - N/A   Clear
1:55 AM 27.5 °F - 26.1 °F 94% 30.46 in 10.0 mi Calm Calm - N/A   Clear
2:15 AM 27.5 °F - 26.1 °F 94% 30.46 in 10.0 mi Calm Calm - N/A   Clear
2:35 AM 25.5 °F - 23.9 °F 94% 30.46 in 10.0 mi Calm Calm - N/A   Clear
2:55 AM 25.3 °F - 24.3 °F 96% 30.47 in 10.0 mi Calm Calm - N/A   Clear
3:15 AM 24.8 °F - 23.9 °F 96% 30.46 in 10.0 mi Calm Calm - N/A   Clear
3:35 AM 23.9 °F - 23.0 °F 96% 30.46 in 10.0 mi Calm Calm - N/A   Clear
3:55 AM 26.1 °F - 25.2 °F 96% 30.46 in 10.0 mi Calm Calm - N/A   Clear
4:15 AM 24.6 °F - 23.7 °F 96% 30.45 in 10.0 mi Calm Calm - N/A   Clear
4:35 AM 24.6 °F - 23.7 °F 96% 30.46 in 10.0 mi Calm Calm - N/A   Clear
4:55 AM 24.8 °F - 23.9 °F 96% 30.45 in 10.0 mi Calm Calm - N/A   Clear
5:15 AM 23.9 °F - 22.8 °F 96% 30.45 in 10.0 mi Calm Calm - N/A   Clear
5:35 AM 25.2 °F - 23.9 °F 95% 30.46 in 10.0 mi Calm Calm - N/A   Clear
5:55 AM 23.9 °F 19.5 °F 22.8 °F 96% 30.46 in 10.0 mi SSW 3.5 mph - N/A   Clear
6:15 AM 25.7 °F 21.5 °F 24.8 °F 96% 30.46 in 10.0 mi SSW 3.5 mph - N/A   Clear
6:35 AM 25.7 °F 20.1 °F 24.4 °F 95% 30.46 in 10.0 mi SSW 4.6 mph - N/A   Clear
6:55 AM 26.4 °F 22.4 °F 24.8 °F 94% 30.45 in 10.0 mi SW 3.5 mph - N/A   Clear
8:15 AM 28.8 °F 25.0 °F 26.1 °F 90% 30.44 in 10.0 mi SW 3.5 mph - N/A   Clear
8:55 AM 31.8 °F 26.2 °F 27.5 °F 84% 30.44 in 10.0 mi SW 5.8 mph - N/A   Clear
9:15 AM 32.5 °F 27.1 °F 28.0 °F 83% 30.44 in 10.0 mi SW 5.8 mph - N/A   Clear
9:35 AM 33.8 °F 27.0 °F 28.9 °F 82% 30.44 in 10.0 mi SW 8.1 mph - N/A   Clear
10:35 AM 39.7 °F 35.6 °F 28.2 °F 63% 30.42 in 10.0 mi SW 5.8 mph - N/A   Clear
10:55 AM 41.2 °F 36.0 °F 28.2 °F 60% 30.42 in 10.0 mi WSW 8.1 mph - N/A   Clear
11:15 AM 42.4 °F 37.0 °F 28.2 °F 57% 30.41 in 10.0 mi SW 9.2 mph - N/A   Clear
11:35 AM 43.7 °F 39.7 °F 29.1 °F 57% 30.39 in 10.0 mi SW 6.9 mph - N/A   Clear
12:15 PM 45.9 °F 42.3 °F 28.2 °F 50% 30.36 in 10.0 mi SW 6.9 mph - N/A   Clear
12:35 PM 46.9 °F - 27.7 °F 47% 30.33 in 10.0 mi SW 8.1 mph - N/A   Clear
12:55 PM 47.7 °F - 28.8 °F 48% 30.32 in 10.0 mi SSW 8.1 mph - N/A   Clear
1:15 PM 48.2 °F - 28.4 °F 46% 30.31 in 10.0 mi SW 6.9 mph - N/A   Clear
1:35 PM 49.1 °F - 28.2 °F 44% 30.29 in 10.0 mi SW 10.4 mph - N/A   Clear
1:55 PM 49.5 °F - 27.5 °F 43% 30.28 in 10.0 mi SSW 6.9 mph - N/A   Clear
2:15 PM 50.2 °F - 28.2 °F 43% 30.26 in 10.0 mi SW 5.8 mph - N/A   Clear
2:35 PM 50.2 °F - 28.8 °F 44% 30.26 in 10.0 mi SW 8.1 mph - N/A   Clear
2:55 PM 50.5 °F - 28.6 °F 43% 30.25 in 10.0 mi SSW 9.2 mph - N/A   Clear
3:15 PM 50.7 °F - 28.4 °F 42% 30.24 in 10.0 mi SW 8.1 mph - N/A   Clear
3:35 PM 51.3 °F - 27.0 °F 39% 30.23 in 10.0 mi WSW 10.4 mph - N/A   Clear
3:55 PM 51.3 °F - 27.9 °F 40% 30.22 in 10.0 mi SW 5.8 mph - N/A   Clear
4:15 PM 51.1 °F - 28.0 °F 41% 30.22 in 10.0 mi SSW 5.8 mph - N/A   Clear
4:35 PM 51.1 °F - 27.3 °F 40% 30.21 in 10.0 mi SSW 6.9 mph - N/A   Clear
4:55 PM 50.4 °F - 26.8 °F 40% 30.21 in 10.0 mi SW 5.8 mph - N/A   Clear
5:15 PM 49.1 °F - 27.1 °F 43% 30.20 in 10.0 mi SSW 4.6 mph - N/A   Clear
5:35 PM 47.3 °F - 28.0 °F 47% 30.20 in 10.0 mi Calm Calm - N/A   Clear
5:55 PM 39.9 °F - 29.8 °F 67% 30.20 in 10.0 mi Calm Calm - N/A   Clear
6:15 PM 37.8 °F - 30.2 °F 74% 30.20 in 10.0 mi Calm Calm - N/A   Clear
6:35 PM 38.5 °F - 30.4 °F 73% 30.20 in 10.0 mi Calm Calm - N/A   Clear
6:55 PM 34.5 °F - 30.6 °F 85% 30.20 in 10.0 mi Calm Calm - N/A   Clear
7:15 PM 35.2 °F - 31.1 °F 85% 30.20 in 10.0 mi Calm Calm - N/A   Clear
7:35 PM 34.3 °F - 29.8 °F 84% 30.20 in 10.0 mi Calm Calm - N/A   Clear
7:55 PM 36.3 °F - 30.0 °F 78% 30.20 in 10.0 mi Calm Calm - N/A   Clear
8:15 PM 35.8 °F 33.0 °F 29.5 °F 78% 30.20 in 10.0 mi SSW 3.5 mph - N/A   Clear
8:35 PM 34.3 °F - 29.7 °F 83% 30.20 in 10.0 mi Calm Calm - N/A   Clear
8:55 PM 31.6 °F - 28.6 °F 88% 30.19 in 10.0 mi Calm Calm - N/A   Clear
9:15 PM 34.2 °F - 28.9 °F 81% 30.19 in 10.0 mi Calm Calm - N/A   Clear
9:35 PM 33.1 °F - 28.9 °F 85% 30.18 in 10.0 mi Calm Calm - N/A   Clear
9:55 PM 32.0 °F - 28.4 °F 87% 30.17 in 10.0 mi Calm Calm - N/A   Clear
10:15 PM 37.6 °F 34.0 °F 29.3 °F 72% 30.16 in 10.0 mi SW 4.6 mph - N/A   Clear
10:35 PM 34.9 °F - 28.8 °F 78% 30.16 in 10.0 mi Calm Calm - N/A   Clear
10:55 PM 36.9 °F 34.3 °F 29.3 °F 74% 30.14 in 10.0 mi WSW 3.5 mph - N/A   Clear
11:15 PM 36.3 °F 32.5 °F 28.9 °F 75% 30.14 in 10.0 mi SW 4.6 mph - N/A   Clear
11:35 PM 37.4 °F 33.8 °F 28.6 °F 70% 30.13 in 10.0 mi WSW 4.6 mph - N/A   Clear